Location: Drummondville
(45.8830°N, 72.4830°W)
Time: 10:44:46
(UTC-05:00)

OTV 5 (USA 277) - Pass Details

Date: 18 November 2017
Orbit: 404 x 417 km, 43.0° (Epoch: 07 September)

Event Time Altitude Azimuth Distance (km) Brightness Sun altitude
Exits shadow 05:04:30 31° 198° (SSW) 734 ? -19.0°
Maximum altitude 05:04:30 31° 198° (SSW) 734 ? -19.0°
Drops below altitude 10° 05:07:26 10° 134° (SE) 1,452 ? -18.5°
Sets 05:09:39 0° 124° (ESE) 2,309 ? -18.1°
